START_TIME,STEP,MOV.,M34,t_acc.,L5,t_acc.,L18,t_acc.,L14,t_acc.
1979-03-03 00:00:14.180 ,3,1,0.,12.0,2.,12.0,0.,12.0,0.,12.0
1979-03-03 00:00:26.180 ,3,1,1.,12.0,4.,12.0,0.,12.0,0.,12.0
1979-03-03 00:00:38.180 ,4,1,1.,12.0,9.,12.0,0.,12.0,0.,12.0
1979-03-03 00:00:50.180 ,4,1,0.,12.0,11.,12.0,0.,12.0,0.,12.0
1979-03-03 00:01:02.180 ,5,1,2.,12.0,19.,12.0,0.,12.0,0.,12.0
1979-03-03 00:01:14.180 ,5,1,0.,12.0,12.,12.0,0.,12.0,0.,12.0
1979-03-03 00:01:26.180 ,6,1,1.,12.0,13.,12.0,0.,12.0,0.,12.0
1979-03-03 00:01:38.180 ,6,1,1.,12.0,20.,12.0,0.,12.0,0.,12.0
1979-03-03 00:01:50.180 ,7,1,2.,12.0,13.,12.0,0.,12.0,0.,12.0
1979-03-03 00:02:02.180 ,7,1,0.,12.0,18.,12.0,0.,12.0,0.,12.0
1979-03-03 00:02:14.180 ,7,1,0.,12.0,17.,12.0,0.,12.0,0.,12.0
1979-03-03 00:02:26.180 ,7,1,0.,12.0,15.,12.0,0.,12.0,0.,12.0
1979-03-03 00:02:38.180 ,6,1,0.,12.0,12.,12.0,0.,12.0,0.,12.0
1979-03-03 00:02:50.180 ,6,1,0.,12.0,27.,12.0,0.,12.0,0.,12.0
1979-03-03 00:03:02.180 ,5,1,1.,12.0,18.,12.0,0.,12.0,0.,12.0
1979-03-03 00:03:14.180 ,5,1,1.,12.0,18.,12.0,0.,12.0,0.,12.0
1979-03-03 00:03:26.180 ,4,1,1.,12.0,16.,12.0,0.,12.0,0.,12.0
1979-03-03 00:03:38.180 ,4,1,1.,12.0,19.,12.0,0.,12.0,0.,12.0
1979-03-03 00:03:50.180 ,3,1,2.,12.0,12.,12.0,0.,12.0,0.,12.0
1979-03-03 00:04:02.180 ,3,1,0.,12.0,11.,12.0,0.,12.0,0.,12.0
1979-03-03 00:04:14.180 ,2,1,0.,12.0,7.,12.0,0.,12.0,0.,12.0
1979-03-03 00:04:26.180 ,2,1,0.,12.0,2.,12.0,0.,12.0,0.,12.0
1979-03-03 00:04:38.180 ,1,1,0.,12.0,4.,12.0,0.,12.0,0.,12.0
1979-03-03 00:04:50.180 ,1,1,0.,12.0,1.,12.0,0.,12.0,0.,12.0
1979-03-03 00:05:02.180 ,0,1,0.,12.0,2.,12.0,0.,12.0,0.,12.0
1979-03-03 00:05:14.180 ,0,1,0.,12.0,5.,12.0,0.,12.0,0.,12.0
1979-03-03 00:05:26.180 ,0,1,0.,12.0,11.,12.0,0.,12.0,0.,12.0
1979-03-03 00:05:38.180 ,0,1,1.,12.0,10.,12.0,0.,12.0,0.,12.0
1979-03-03 00:05:50.180 ,1,1,0.,12.0,11.,12.0,0.,12.0,0.,12.0
1979-03-03 00:06:02.180 ,1,1,0.,12.0,3.,12.0,0.,12.0,0.,12.0
1979-03-03 00:06:14.180 ,2,1,0.,12.0,0.,12.0,0.,12.0,0.,12.0
1979-03-03 00:06:26.180 ,2,1,0.,12.0,1.,12.0,0.,12.0,0.,12.0
1979-03-03 00:06:38.180 ,3,1,0.,12.0,2.,12.0,0.,12.0,0.,12.0
1979-03-03 00:06:50.180 ,3,1,0.,12.0,3.,12.0,0.,12.0,0.,12.0
1979-03-03 00:07:02.180 ,4,1,0.,12.0,4.,12.0,0.,12.0,0.,12.0
1979-03-03 00:07:14.180 ,4,1,0.,12.0,15.,12.0,0.,12.0,0.,12.0
1979-03-03 00:07:26.180 ,5,1,1.,12.0,11.,12.0,0.,12.0,0.,12.0
1979-03-03 00:07:38.180 ,5,1,1.,12.0,21.,12.0,0.,12.0,0.,12.0
1979-03-03 00:07:50.180 ,6,1,0.,12.0,18.,12.0,0.,12.0,0.,12.0
1979-03-03 00:08:02.180 ,6,1,1.,12.0,12.,12.0,0.,12.0,0.,12.0
1979-03-03 00:08:14.180 ,7,1,0.,12.0,23.,12.0,0.,12.0,0.,12.0
1979-03-03 00:08:26.180 ,7,1,1.,12.0,23.,12.0,0.,12.0,0.,12.0
1979-03-03 00:08:38.180 ,7,1,0.,12.0,16.,12.0,0.,12.0,0.,12.0
1979-03-03 00:08:50.180 ,7,1,0.,12.0,14.,12.0,0.,12.0,0.,12.0
1979-03-03 00:09:02.180 ,6,1,0.,12.0,9.,12.0,0.,12.0,0.,12.0
1979-03-03 00:09:14.180 ,6,1,0.,12.0,27.,12.0,0.,12.0,0.,12.0
1979-03-03 00:09:26.180 ,5,1,3.,12.0,18.,12.0,0.,12.0,0.,12.0
1979-03-03 00:09:38.180 ,5,1,0.,12.0,16.,12.0,0.,12.0,0.,12.0
1979-03-03 00:09:50.180 ,4,1,2.,12.0,23.,12.0,0.,12.0,0.,12.0
1979-03-03 00:10:02.180 ,4,1,1.,12.0,12.,12.0,0.,12.0,0.,12.0
1979-03-03 00:10:14.180 ,3,1,1.,12.0,7.,12.0,0.,12.0,0.,12.0
1979-03-03 00:10:26.180 ,3,1,0.,12.0,3.,12.0,0.,12.0,0.,12.0
1979-03-03 00:10:38.180 ,2,1,0.,12.0,0.,12.0,0.,12.0,0.,12.0
1979-03-03 00:10:50.180 ,2,1,0.,12.0,0.,12.0,0.,12.0,0.,12.0
1979-03-03 00:11:02.180 ,1,1,0.,12.0,1.,12.0,0.,12.0,0.,12.0
1979-03-03 00:11:14.180 ,1,1,1.,12.0,0.,12.0,0.,12.0,0.,12.0
1979-03-03 00:11:26.180 ,0,1,0.,12.0,1.,12.0,0.,12.0,0.,12.0
1979-03-03 00:11:38.180 ,0,1,0.,12.0,3.,12.0,0.,12.0,0.,12.0
1979-03-03 00:11:50.180 ,0,1,0.,12.0,2.,12.0,0.,12.0,0.,12.0
1979-03-03 00:12:02.180 ,0,1,0.,12.0,5.,12.0,0.,12.0,0.,12.0
1979-03-03 00:12:14.180 ,1,1,0.,12.0,6.,12.0,0.,12.0,0.,12.0
1979-03-03 00:12:26.180 ,1,1,0.,12.0,2.,12.0,0.,12.0,0.,12.0
1979-03-03 00:12:38.180 ,2,1,0.,12.0,0.,12.0,0.,12.0,0.,12.0
1979-03-03 00:12:50.180 ,2,1,0.,12.0,0.,12.0,0.,12.0,0.,12.0
1979-03-03 00:13:02.180 ,3,1,0.,12.0,0.,12.0,0.,12.0,0.,12.0
1979-03-03 00:13:14.180 ,3,1,0.,12.0,0.,12.0,0.,12.0,0.,12.0
1979-03-03 00:13:26.180 ,4,1,0.,12.0,2.,12.0,0.,12.0,0.,12.0
1979-03-03 00:13:38.180 ,4,1,0.,12.0,7.,12.0,0.,12.0,0.,12.0
1979-03-03 00:13:50.180 ,5,1,1.,12.0,5.,12.0,0.,12.0,0.,12.0
1979-03-03 00:14:02.180 ,5,1,0.,12.0,9.,12.0,0.,12.0,0.,12.0
1979-03-03 00:14:14.180 ,6,1,0.,12.0,16.,12.0,0.,12.0,0.,12.0
1979-03-03 00:14:26.180 ,6,1,0.,12.0,21.,12.0,0.,12.0,0.,12.0
1979-03-03 00:14:38.180 ,7,1,1.,12.0,17.,12.0,0.,12.0,0.,12.0
1979-03-03 00:14:50.180 ,7,1,0.,12.0,18.,12.0,0.,12.0,0.,12.0
1979-03-03 00:15:02.180 ,7,1,0.,12.0,15.,12.0,0.,12.0,0.,12.0
1979-03-03 00:15:14.180 ,7,1,0.,12.0,14.,12.0,0.,12.0,0.,12.0
1979-03-03 00:15:26.180 ,6,1,0.,12.0,11.,12.0,0.,12.0,0.,12.0
1979-03-03 00:15:38.180 ,6,1,1.,12.0,16.,12.0,0.,12.0,0.,12.0
1979-03-03 00:15:50.180 ,5,1,1.,12.0,18.,12.0,0.,12.0,0.,12.0
1979-03-03 00:16:02.180 ,5,1,1.,12.0,12.,12.0,0.,12.0,0.,12.0
1979-03-03 00:16:14.180 ,4,1,2.,12.0,9.,12.0,0.,12.0,0.,12.0
1979-03-03 00:16:26.180 ,4,1,0.,12.0,10.,12.0,0.,12.0,0.,12.0
1979-03-03 00:16:38.180 ,3,1,0.,12.0,3.,12.0,0.,12.0,0.,12.0
1979-03-03 00:16:50.180 ,3,1,0.,12.0,2.,12.0,0.,12.0,0.,12.0
1979-03-03 00:17:02.180 ,2,1,0.,12.0,4.,12.0,0.,12.0,0.,12.0
1979-03-03 00:17:14.180 ,2,1,0.,12.0,1.,12.0,0.,12.0,0.,12.0
1979-03-03 00:17:26.180 ,1,1,0.,12.0,0.,12.0,0.,12.0,0.,12.0
1979-03-03 00:17:38.180 ,1,1,0.,12.0,0.,12.0,0.,12.0,0.,12.0
1979-03-03 00:17:50.180 ,0,1,0.,12.0,0.,12.0,0.,12.0,0.,12.0
1979-03-03 00:18:02.180 ,0,1,1.,12.0,2.,12.0,0.,12.0,0.,12.0
1979-03-03 00:18:14.180 ,0,1,0.,12.0,2.,12.0,0.,12.0,0.,12.0
1979-03-03 00:18:26.180 ,0,1,0.,12.0,4.,12.0,0.,12.0,0.,12.0
1979-03-03 00:18:38.180 ,1,1,0.,12.0,0.,12.0,0.,12.0,0.,12.0
1979-03-03 00:18:50.180 ,1,1,0.,12.0,1.,12.0,0.,12.0,0.,12.0
1979-03-03 00:19:02.180 ,2,1,0.,12.0,0.,12.0,0.,12.0,0.,12.0
1979-03-03 00:19:14.180 ,2,1,0.,12.0,0.,12.0,0.,12.0,0.,12.0
1979-03-03 00:19:26.180 ,3,1,0.,12.0,0.,12.0,0.,12.0,0.,12.0
1979-03-03 00:19:38.180 ,3,1,0.,12.0,0.,12.0,0.,12.0,0.,12.0
1979-03-03 00:19:50.180 ,4,1,0.,12.0,3.,12.0,0.,12.0,0.,12.0
1979-03-03 00:20:02.180 ,4,1,0.,12.0,4.,12.0,0.,12.0,0.,12.0
1979-03-03 00:20:14.180 ,5,1,1.,12.0,4.,12.0,0.,12.0,0.,12.0
1979-03-03 00:20:26.180 ,5,1,0.,12.0,4.,12.0,0.,12.0,0.,12.0
1979-03-03 00:20:38.180 ,6,1,0.,12.0,3.,12.0,0.,12.0,0.,12.0
1979-03-03 00:20:50.180 ,6,1,2.,12.0,2.,12.0,0.,12.0,0.,12.0
1979-03-03 00:21:02.180 ,7,1,0.,12.0,1.,12.0,0.,12.0,0.,12.0
1979-03-03 00:21:14.180 ,7,1,0.,12.0,12.,12.0,0.,12.0,0.,12.0
1979-03-03 00:21:26.180 ,7,1,0.,12.0,14.,12.0,0.,12.0,0.,12.0
1979-03-03 00:21:38.180 ,7,1,0.,12.0,21.,12.0,0.,12.0,0.,12.0
1979-03-03 00:21:50.180 ,6,1,0.,12.0,16.,12.0,0.,12.0,0.,12.0
1979-03-03 00:22:02.180 ,6,1,0.,12.0,10.,12.0,0.,12.0,0.,12.0
1979-03-03 00:22:14.180 ,5,1,0.,12.0,4.,12.0,0.,12.0,0.,12.0
1979-03-03 00:22:26.180 ,5,1,0.,12.0,1.,12.0,0.,12.0,0.,12.0
1979-03-03 00:22:38.180 ,4,1,1.,12.0,5.,12.0,0.,12.0,0.,12.0
1979-03-03 00:22:50.180 ,4,1,1.,12.0,3.,12.0,0.,12.0,0.,12.0
1979-03-03 00:23:02.180 ,3,1,0.,12.0,7.,12.0,0.,12.0,0.,12.0
1979-03-03 00:23:14.180 ,3,1,0.,12.0,2.,12.0,0.,12.0,0.,12.0
1979-03-03 00:23:26.180 ,2,1,0.,12.0,1.,12.0,0.,12.0,0.,12.0
1979-03-03 00:23:38.180 ,2,1,0.,12.0,0.,12.0,0.,12.0,0.,12.0
1979-03-03 00:23:50.180 ,1,1,0.,12.0,0.,12.0,0.,12.0,0.,12.0
1979-03-03 00:24:02.180 ,1,1,0.,12.0,0.,12.0,0.,12.0,0.,12.0
1979-03-03 00:24:14.180 ,0,1,0.,12.0,0.,12.0,0.,12.0,0.,12.0
1979-03-03 00:24:26.180 ,0,1,0.,12.0,1.,12.0,0.,12.0,0.,12.0
1979-03-03 00:24:38.180 ,0,1,0.,12.0,3.,12.0,0.,12.0,0.,12.0
1979-03-03 00:24:50.180 ,0,1,0.,12.0,4.,12.0,0.,12.0,0.,12.0
1979-03-03 00:25:02.180 ,1,1,0.,12.0,2.,12.0,0.,12.0,0.,12.0
1979-03-03 00:25:14.180 ,1,1,0.,12.0,2.,12.0,0.,12.0,0.,12.0
1979-03-03 00:25:26.180 ,0,0,0.,12.0,0.,12.0,0.,12.0,0.,12.0
1979-03-03 00:25:38.180 ,0,0,0.,12.0,1.,12.0,0.,12.0,0.,12.0
1979-03-03 00:25:50.180 ,0,0,0.,12.0,0.,12.0,0.,12.0,0.,12.0
1979-03-03 00:26:02.180 ,0,0,0.,12.0,0.,12.0,0.,12.0,0.,12.0
1979-03-03 00:26:14.180 ,4,1,0.,12.0,0.,12.0,0.,12.0,0.,12.0
1979-03-03 00:26:26.180 ,4,1,0.,12.0,3.,12.0,0.,12.0,0.,12.0
1979-03-03 00:26:38.180 ,5,1,0.,12.0,4.,12.0,0.,12.0,0.,12.0
1979-03-03 00:26:50.180 ,5,1,0.,12.0,2.,12.0,0.,12.0,0.,12.0
1979-03-03 00:27:02.180 ,6,1,0.,12.0,2.,12.0,0.,12.0,0.,12.0
1979-03-03 00:27:14.180 ,6,1,0.,12.0,1.,12.0,0.,12.0,0.,12.0
1979-03-03 00:27:26.180 ,7,1,0.,12.0,1.,12.0,0.,12.0,0.,12.0
1979-03-03 00:27:38.180 ,7,1,0.,12.0,6.,12.0,0.,12.0,0.,12.0
1979-03-03 00:27:50.180 ,7,1,0.,12.0,19.,12.0,0.,12.0,0.,12.0
1979-03-03 00:28:02.180 ,7,1,0.,12.0,17.,12.0,0.,12.0,0.,12.0
1979-03-03 00:28:14.180 ,6,1,0.,12.0,16.,12.0,0.,12.0,0.,12.0
1979-03-03 00:28:26.180 ,6,1,1.,12.0,4.,12.0,0.,12.0,0.,12.0
1979-03-03 00:28:38.180 ,5,1,0.,12.0,1.,12.0,0.,12.0,0.,12.0
1979-03-03 00:28:50.180 ,5,1,0.,12.0,1.,12.0,0.,12.0,0.,12.0
1979-03-03 00:29:02.180 ,4,1,0.,12.0,2.,12.0,0.,12.0,0.,12.0
1979-03-03 00:29:14.180 ,4,1,0.,12.0,7.,12.0,0.,12.0,0.,12.0
1979-03-03 00:29:26.180 ,3,1,0.,12.0,2.,12.0,0.,12.0,0.,12.0
1979-03-03 00:29:38.180 ,3,1,0.,12.0,2.,12.0,0.,12.0,0.,12.0
1979-03-03 00:29:50.180 ,2,1,0.,12.0,0.,12.0,0.,12.0,0.,12.0
1979-03-03 00:30:02.180 ,2,1,0.,12.0,0.,12.0,0.,12.0,0.,12.0
1979-03-03 00:30:14.180 ,1,1,0.,12.0,0.,12.0,0.,12.0,0.,12.0
1979-03-03 00:30:26.180 ,1,1,0.,12.0,0.,12.0,0.,12.0,0.,12.0
1979-03-03 00:30:38.180 ,0,1,0.,12.0,0.,12.0,0.,12.0,0.,12.0
1979-03-03 00:30:50.180 ,0,1,0.,12.0,0.,12.0,0.,12.0,0.,12.0
1979-03-03 00:31:02.180 ,0,1,0.,12.0,2.,12.0,0.,12.0,0.,12.0
1979-03-03 00:31:14.180 ,0,1,0.,12.0,0.,12.0,0.,12.0,0.,12.0
1979-03-03 00:31:26.180 ,1,1,0.,12.0,0.,12.0,0.,12.0,0.,12.0
1979-03-03 00:31:38.180 ,1,1,0.,12.0,0.,12.0,0.,12.0,0.,12.0
1979-03-03 00:31:50.180 ,2,1,0.,12.0,0.,12.0,0.,12.0,0.,12.0
1979-03-03 00:32:02.180 ,2,1,0.,12.0,1.,12.0,0.,12.0,0.,12.0
1979-03-03 00:32:14.180 ,3,1,0.,12.0,0.,12.0,0.,12.0,0.,12.0
1979-03-03 00:32:26.180 ,3,1,0.,12.0,0.,12.0,0.,12.0,0.,12.0
1979-03-03 00:32:38.180 ,4,1,0.,12.0,0.,12.0,0.,12.0,0.,12.0
1979-03-03 00:32:50.180 ,4,1,0.,12.0,1.,12.0,0.,12.0,0.,12.0
1979-03-03 00:33:02.180 ,5,1,0.,12.0,4.,12.0,0.,12.0,0.,12.0
1979-03-03 00:33:14.180 ,5,1,0.,12.0,1.,12.0,0.,12.0,0.,12.0
1979-03-03 00:33:26.180 ,6,1,0.,12.0,0.,12.0,0.,12.0,0.,12.0
1979-03-03 00:33:38.180 ,6,1,0.,12.0,1.,12.0,0.,12.0,0.,12.0
1979-03-03 00:33:50.180 ,7,1,0.,12.0,2.,12.0,0.,12.0,0.,12.0
1979-03-03 00:34:02.180 ,7,1,0.,12.0,9.,12.0,0.,12.0,0.,12.0
1979-03-03 00:34:14.180 ,7,1,0.,12.0,24.,12.0,0.,12.0,0.,12.0
1979-03-03 00:34:26.180 ,7,1,0.,12.0,18.,12.0,0.,12.0,0.,12.0
1979-03-03 00:34:38.180 ,6,1,0.,12.0,15.,12.0,0.,12.0,0.,12.0
1979-03-03 00:34:50.180 ,6,1,0.,12.0,7.,12.0,0.,12.0,0.,12.0
1979-03-03 00:35:02.180 ,5,1,0.,12.0,1.,12.0,0.,12.0,0.,12.0
1979-03-03 00:35:14.180 ,5,1,0.,12.0,0.,12.0,0.,12.0,0.,12.0
1979-03-03 00:35:26.180 ,4,1,0.,12.0,1.,12.0,0.,12.0,0.,12.0
1979-03-03 00:35:38.180 ,4,1,0.,12.0,2.,12.0,0.,12.0,0.,12.0
1979-03-03 00:35:50.180 ,3,1,1.,12.0,5.,12.0,0.,12.0,0.,12.0
1979-03-03 00:36:02.180 ,3,1,0.,12.0,2.,12.0,0.,12.0,0.,12.0
1979-03-03 00:36:14.180 ,2,1,0.,12.0,0.,12.0,0.,12.0,0.,12.0
1979-03-03 00:36:26.180 ,2,1,0.,12.0,1.,12.0,0.,12.0,0.,12.0
1979-03-03 00:36:38.180 ,1,1,0.,12.0,0.,12.0,0.,12.0,0.,12.0
1979-03-03 00:36:50.180 ,1,1,0.,12.0,0.,12.0,0.,12.0,0.,12.0
1979-03-03 00:37:02.180 ,0,1,0.,12.0,0.,12.0,0.,12.0,0.,12.0
1979-03-03 00:37:14.180 ,0,1,0.,12.0,1.,12.0,0.,12.0,0.,12.0
1979-03-03 00:37:26.180 ,0,1,0.,12.0,2.,12.0,0.,12.0,0.,12.0
1979-03-03 00:37:38.180 ,0,1,0.,12.0,2.,12.0,0.,12.0,0.,12.0
1979-03-03 00:37:50.180 ,1,1,0.,12.0,2.,12.0,0.,12.0,0.,12.0
1979-03-03 00:38:02.180 ,1,1,0.,12.0,0.,12.0,0.,12.0,0.,12.0
1979-03-03 00:38:14.180 ,2,1,0.,12.0,0.,12.0,0.,12.0,0.,12.0
1979-03-03 00:38:26.180 ,2,1,0.,12.0,0.,12.0,0.,12.0,0.,12.0
1979-03-03 00:38:38.180 ,3,1,0.,12.0,0.,12.0,0.,12.0,0.,12.0
1979-03-03 00:38:50.180 ,3,1,0.,12.0,0.,12.0,0.,12.0,0.,12.0
1979-03-03 00:39:02.180 ,4,1,0.,12.0,2.,12.0,0.,12.0,0.,12.0
1979-03-03 00:39:14.180 ,4,1,0.,12.0,4.,12.0,0.,12.0,0.,12.0
1979-03-03 00:39:26.180 ,5,1,0.,12.0,3.,12.0,0.,12.0,0.,12.0
1979-03-03 00:39:38.180 ,5,1,0.,12.0,0.,12.0,0.,12.0,0.,12.0
1979-03-03 00:39:50.180 ,6,1,0.,12.0,0.,12.0,0.,12.0,0.,12.0
1979-03-03 00:40:02.180 ,6,1,0.,12.0,0.,12.0,0.,12.0,0.,12.0
1979-03-03 00:40:14.180 ,7,1,0.,12.0,0.,12.0,0.,12.0,0.,12.0
1979-03-03 00:40:26.180 ,7,1,0.,12.0,11.,12.0,0.,12.0,0.,12.0
1979-03-03 00:40:38.180 ,7,1,0.,12.0,28.,12.0,0.,12.0,0.,12.0
1979-03-03 00:40:50.180 ,7,1,0.,12.0,14.,12.0,0.,12.0,0.,12.0
1979-03-03 00:41:02.180 ,6,1,0.,12.0,24.,12.0,0.,12.0,0.,12.0
1979-03-03 00:41:14.180 ,6,1,0.,12.0,8.,12.0,0.,12.0,0.,12.0
1979-03-03 00:41:26.180 ,5,1,0.,12.0,0.,12.0,0.,12.0,0.,12.0
1979-03-03 00:41:38.180 ,5,1,0.,12.0,1.,12.0,0.,12.0,0.,12.0
1979-03-03 00:41:50.180 ,4,1,1.,12.0,0.,12.0,0.,12.0,0.,12.0
1979-03-03 00:42:02.180 ,4,1,0.,12.0,2.,12.0,0.,12.0,0.,12.0
1979-03-03 00:42:14.180 ,3,1,0.,12.0,3.,12.0,0.,12.0,0.,12.0
1979-03-03 00:42:26.180 ,3,1,0.,12.0,0.,12.0,0.,12.0,0.,12.0
1979-03-03 00:42:38.180 ,2,1,0.,12.0,1.,12.0,0.,12.0,0.,12.0
1979-03-03 00:42:50.180 ,2,1,0.,12.0,0.,12.0,0.,12.0,0.,12.0
1979-03-03 00:43:02.180 ,1,1,0.,12.0,0.,12.0,0.,12.0,0.,12.0
1979-03-03 00:43:14.180 ,1,1,0.,12.0,0.,12.0,0.,12.0,0.,12.0
1979-03-03 00:43:26.180 ,0,1,0.,12.0,1.,12.0,0.,12.0,0.,12.0
1979-03-03 00:43:38.180 ,0,1,0.,12.0,1.,12.0,0.,12.0,0.,12.0
1979-03-03 00:43:50.180 ,0,1,0.,12.0,3.,12.0,0.,12.0,0.,12.0
1979-03-03 00:44:02.180 ,0,1,0.,12.0,0.,12.0,0.,12.0,0.,12.0
1979-03-03 00:44:14.180 ,1,1,0.,12.0,2.,12.0,0.,12.0,0.,12.0
1979-03-03 00:44:26.180 ,1,1,0.,12.0,1.,12.0,0.,12.0,0.,12.0
1979-03-03 00:44:38.180 ,2,1,0.,12.0,0.,12.0,0.,12.0,0.,12.0
1979-03-03 00:44:50.180 ,2,1,0.,12.0,0.,12.0,0.,12.0,0.,12.0
1979-03-03 00:45:02.180 ,3,1,0.,12.0,0.,12.0,0.,12.0,0.,12.0
1979-03-03 00:45:14.180 ,3,1,0.,12.0,0.,12.0,0.,12.0,0.,12.0
1979-03-03 00:45:26.180 ,4,1,0.,12.0,0.,12.0,0.,12.0,0.,12.0
1979-03-03 00:45:38.180 ,4,1,0.,12.0,2.,12.0,0.,12.0,0.,12.0
1979-03-03 00:45:50.180 ,5,1,0.,12.0,1.,12.0,0.,12.0,0.,12.0
1979-03-03 00:46:02.180 ,5,1,0.,12.0,1.,12.0,0.,12.0,0.,12.0
1979-03-03 00:46:14.180 ,6,1,0.,12.0,1.,12.0,0.,12.0,0.,12.0
1979-03-03 00:46:26.180 ,6,1,0.,12.0,0.,12.0,0.,12.0,0.,12.0
1979-03-03 00:46:38.180 ,7,1,0.,12.0,0.,12.0,0.,12.0,0.,12.0
1979-03-03 00:46:50.180 ,7,1,0.,12.0,8.,12.0,0.,12.0,0.,12.0
1979-03-03 00:47:02.180 ,7,1,0.,12.0,13.,12.0,0.,12.0,0.,12.0
1979-03-03 00:47:14.180 ,7,1,0.,12.0,14.,12.0,0.,12.0,0.,12.0
1979-03-03 00:47:26.180 ,6,1,0.,12.0,14.,12.0,0.,12.0,0.,12.0
1979-03-03 00:47:38.180 ,6,1,0.,12.0,2.,12.0,0.,12.0,0.,12.0
1979-03-03 00:47:50.180 ,5,1,0.,12.0,0.,12.0,0.,12.0,0.,12.0
1979-03-03 00:48:02.180 ,5,1,0.,12.0,0.,12.0,0.,12.0,0.,12.0
1979-03-03 00:48:14.180 ,4,1,0.,12.0,0.,12.0,0.,12.0,0.,12.0
1979-03-03 00:48:26.180 ,4,1,0.,12.0,0.,12.0,0.,12.0,0.,12.0
1979-03-03 00:48:38.180 ,3,1,0.,12.0,1.,12.0,0.,12.0,0.,12.0
1979-03-03 00:48:50.180 ,3,1,0.,12.0,2.,12.0,0.,12.0,0.,12.0
1979-03-03 00:49:02.180 ,2,1,0.,12.0,1.,12.0,0.,12.0,0.,12.0
1979-03-03 00:49:14.180 ,2,1,0.,12.0,0.,12.0,0.,12.0,0.,12.0
1979-03-03 00:49:26.180 ,1,1,0.,12.0,0.,12.0,0.,12.0,0.,12.0
1979-03-03 00:49:38.180 ,1,1,0.,12.0,0.,12.0,0.,12.0,0.,12.0
1979-03-03 00:49:50.180 ,0,1,0.,12.0,0.,12.0,0.,12.0,0.,12.0
1979-03-03 00:50:02.180 ,0,1,0.,12.0,0.,12.0,0.,12.0,0.,12.0
1979-03-03 00:50:14.180 ,0,1,0.,12.0,2.,12.0,0.,12.0,0.,12.0
1979-03-03 00:50:26.180 ,0,1,0.,12.0,1.,12.0,0.,12.0,0.,12.0
1979-03-03 00:50:38.180 ,1,1,0.,12.0,3.,12.0,0.,12.0,0.,12.0
1979-03-03 00:50:50.180 ,1,1,0.,12.0,1.,12.0,0.,12.0,0.,12.0
1979-03-03 00:51:02.180 ,2,1,0.,12.0,0.,12.0,0.,12.0,0.,12.0
1979-03-03 00:51:14.180 ,2,1,0.,12.0,0.,12.0,0.,12.0,0.,12.0
1979-03-03 00:51:26.180 ,3,1,0.,12.0,0.,12.0,0.,12.0,0.,12.0
1979-03-03 00:51:38.180 ,3,1,0.,12.0,0.,12.0,0.,12.0,0.,12.0
1979-03-03 00:51:50.180 ,4,1,1.,12.0,0.,12.0,0.,12.0,0.,12.0
1979-03-03 00:52:02.180 ,4,1,0.,12.0,0.,12.0,0.,12.0,0.,12.0
1979-03-03 00:52:14.180 ,5,1,0.,12.0,0.,12.0,0.,12.0,0.,12.0
1979-03-03 00:52:26.180 ,5,1,0.,12.0,1.,12.0,0.,12.0,0.,12.0
1979-03-03 00:52:38.180 ,6,1,0.,12.0,0.,12.0,0.,12.0,0.,12.0
1979-03-03 00:52:50.180 ,6,1,0.,12.0,0.,12.0,0.,12.0,0.,12.0
1979-03-03 00:53:02.180 ,7,1,0.,12.0,0.,12.0,0.,12.0,0.,12.0
1979-03-03 00:53:14.180 ,7,1,0.,12.0,12.,12.0,0.,12.0,0.,12.0
1979-03-03 00:53:26.180 ,7,1,0.,12.0,17.,12.0,0.,12.0,0.,12.0
1979-03-03 00:53:38.180 ,7,1,0.,12.0,15.,12.0,0.,12.0,0.,12.0
1979-03-03 00:53:50.180 ,6,1,0.,12.0,12.,12.0,0.,12.0,0.,12.0
1979-03-03 00:54:02.180 ,6,1,0.,12.0,7.,12.0,0.,12.0,0.,12.0
1979-03-03 00:54:14.180 ,5,1,0.,12.0,0.,12.0,0.,12.0,0.,12.0
1979-03-03 00:54:26.180 ,5,1,0.,12.0,0.,12.0,0.,12.0,0.,12.0
1979-03-03 00:54:38.180 ,4,1,0.,12.0,0.,12.0,0.,12.0,0.,12.0
1979-03-03 00:54:50.180 ,4,1,0.,12.0,0.,12.0,0.,12.0,0.,12.0
1979-03-03 00:55:02.180 ,3,1,0.,12.0,0.,12.0,0.,12.0,0.,12.0
1979-03-03 00:55:14.180 ,3,1,0.,12.0,0.,12.0,0.,12.0,0.,12.0
1979-03-03 00:55:26.180 ,3,0,0.,12.0,1.,12.0,0.,12.0,0.,12.0
1979-03-03 00:55:38.180 ,3,0,,0,,0,,0,,0
1979-03-03 00:55:50.180 ,1,1,0.,12.0,0.,12.0,0.,12.0,0.,12.0
1979-03-03 00:56:02.180 ,1,1,0.,12.0,0.,12.0,0.,12.0,0.,12.0
1979-03-03 00:56:14.180 ,0,1,0.,12.0,0.,12.0,0.,12.0,0.,12.0
1979-03-03 00:56:26.180 ,0,1,0.,12.0,0.,12.0,0.,12.0,0.,12.0
1979-03-03 00:56:38.180 ,0,1,0.,12.0,1.,12.0,0.,12.0,0.,12.0
1979-03-03 00:56:50.180 ,0,1,0.,12.0,1.,12.0,0.,12.0,0.,12.0
1979-03-03 00:57:02.180 ,1,1,0.,12.0,0.,12.0,0.,12.0,0.,12.0
1979-03-03 00:57:14.180 ,1,1,0.,12.0,0.,12.0,0.,12.0,0.,12.0
1979-03-03 00:57:26.180 ,2,1,0.,12.0,0.,12.0,0.,12.0,0.,12.0
1979-03-03 00:57:38.180 ,2,1,0.,12.0,0.,12.0,0.,12.0,0.,12.0
1979-03-03 00:57:50.180 ,3,1,0.,12.0,0.,12.0,0.,12.0,0.,12.0
1979-03-03 00:58:02.180 ,3,1,0.,12.0,0.,12.0,0.,12.0,0.,12.0
1979-03-03 00:58:14.180 ,4,1,0.,12.0,0.,12.0,0.,12.0,0.,12.0
1979-03-03 00:58:26.180 ,4,1,0.,12.0,0.,12.0,0.,12.0,0.,12.0
1979-03-03 00:58:38.180 ,5,1,0.,12.0,0.,12.0,0.,12.0,0.,12.0
1979-03-03 00:58:50.180 ,5,1,0.,12.0,1.,12.0,0.,12.0,0.,12.0
1979-03-03 00:59:02.180 ,6,1,0.,12.0,0.,12.0,0.,12.0,0.,12.0
1979-03-03 00:59:14.180 ,6,1,0.,12.0,0.,12.0,0.,12.0,0.,12.0
1979-03-03 00:59:26.180 ,7,1,0.,12.0,0.,12.0,0.,12.0,0.,12.0
1979-03-03 00:59:38.180 ,7,1,0.,12.0,13.,12.0,0.,12.0,0.,12.0
1979-03-03 00:59:50.180 ,7,1,0.,12.0,18.,12.0,0.,12.0,0.,12.0
1979-03-03 01:00:02.180 ,7,1,0.,12.0,15.,12.0,0.,12.0,0.,12.0
1979-03-03 01:00:14.180 ,6,1,0.,12.0,20.,12.0,0.,12.0,0.,12.0
1979-03-03 01:00:26.180 ,6,1,0.,12.0,7.,12.0,0.,12.0,0.,12.0
1979-03-03 01:00:38.180 ,5,1,0.,12.0,0.,12.0,0.,12.0,0.,12.0
1979-03-03 01:00:50.180 ,5,1,0.,12.0,0.,12.0,0.,12.0,0.,12.0
1979-03-03 01:01:02.180 ,4,1,0.,12.0,0.,12.0,0.,12.0,0.,12.0
1979-03-03 01:01:14.180 ,4,1,0.,12.0,0.,12.0,0.,12.0,0.,12.0
1979-03-03 01:01:26.180 ,3,1,0.,12.0,0.,12.0,0.,12.0,0.,12.0
1979-03-03 01:01:38.180 ,3,1,0.,12.0,0.,12.0,0.,12.0,0.,12.0
1979-03-03 01:01:50.180 ,2,1,0.,12.0,0.,12.0,0.,12.0,0.,12.0
1979-03-03 01:02:02.180 ,2,1,0.,12.0,0.,12.0,0.,12.0,0.,12.0
1979-03-03 01:02:14.180 ,1,1,0.,12.0,0.,12.0,0.,12.0,0.,12.0
1979-03-03 01:02:26.180 ,1,1,0.,12.0,0.,12.0,0.,12.0,0.,12.0
1979-03-03 01:02:38.180 ,0,1,0.,12.0,1.,12.0,0.,12.0,0.,12.0
1979-03-03 01:02:50.180 ,0,1,0.,12.0,0.,12.0,0.,12.0,0.,12.0
1979-03-03 01:03:02.180 ,0,1,0.,12.0,0.,12.0,0.,12.0,0.,12.0
1979-03-03 01:03:14.180 ,0,1,0.,12.0,0.,12.0,0.,12.0,0.,12.0
1979-03-03 01:03:26.180 ,1,1,0.,12.0,1.,12.0,0.,12.0,0.,12.0
1979-03-03 01:03:38.180 ,1,1,0.,12.0,0.,12.0,0.,12.0,0.,12.0
1979-03-03 01:03:50.180 ,2,1,,0,,0,,0,,0
1979-03-03 01:04:02.180 ,2,1,0.,12.0,0.,12.0,0.,12.0,0.,12.0
1979-03-03 01:04:14.180 ,3,1,0.,12.0,0.,12.0,0.,12.0,0.,12.0
1979-03-03 01:04:26.180 ,3,1,0.,12.0,0.,12.0,0.,12.0,0.,12.0
1979-03-03 01:04:38.180 ,4,1,0.,12.0,1.,12.0,0.,12.0,0.,12.0
1979-03-03 01:04:50.180 ,4,1,0.,12.0,1.,12.0,0.,12.0,0.,12.0
1979-03-03 01:05:02.180 ,5,1,0.,12.0,1.,12.0,0.,12.0,0.,12.0
1979-03-03 01:05:14.180 ,5,1,0.,12.0,0.,12.0,0.,12.0,0.,12.0
1979-03-03 01:05:26.180 ,6,1,0.,12.0,2.,12.0,0.,12.0,0.,12.0
1979-03-03 01:05:38.180 ,6,1,0.,12.0,0.,12.0,0.,12.0,0.,12.0
1979-03-03 01:05:50.180 ,7,1,0.,12.0,0.,12.0,0.,12.0,0.,12.0
1979-03-03 01:06:02.180 ,7,1,0.,12.0,14.,12.0,0.,12.0,0.,12.0
1979-03-03 01:06:14.180 ,7,1,0.,12.0,8.,12.0,0.,12.0,0.,12.0
1979-03-03 01:06:26.180 ,7,1,0.,12.0,18.,12.0,0.,12.0,0.,12.0
1979-03-03 01:06:38.180 ,6,1,0.,12.0,15.,12.0,0.,12.0,0.,12.0
1979-03-03 01:06:50.180 ,6,1,0.,12.0,12.,12.0,0.,12.0,0.,12.0
1979-03-03 01:07:02.180 ,5,1,0.,12.0,0.,12.0,0.,12.0,0.,12.0
1979-03-03 01:07:14.180 ,5,1,0.,12.0,1.,12.0,0.,12.0,0.,12.0
1979-03-03 01:07:26.180 ,4,1,0.,12.0,0.,12.0,0.,12.0,0.,12.0
1979-03-03 01:07:38.180 ,4,1,0.,12.0,1.,12.0,0.,12.0,0.,12.0
1979-03-03 01:07:50.180 ,3,1,0.,12.0,0.,12.0,0.,12.0,0.,12.0
1979-03-03 01:08:02.180 ,3,1,0.,12.0,1.,12.0,0.,12.0,0.,12.0
1979-03-03 01:08:14.180 ,2,1,0.,12.0,0.,12.0,0.,12.0,0.,12.0
1979-03-03 01:08:26.180 ,2,1,0.,12.0,0.,12.0,0.,12.0,0.,12.0
1979-03-03 01:08:38.180 ,1,1,0.,12.0,0.,12.0,0.,12.0,0.,12.0
1979-03-03 01:08:50.180 ,1,1,0.,12.0,1.,12.0,0.,12.0,0.,12.0
1979-03-03 01:09:02.180 ,0,1,0.,12.0,0.,12.0,0.,12.0,0.,12.0
1979-03-03 01:09:14.180 ,0,1,0.,12.0,0.,12.0,0.,12.0,0.,12.0
1979-03-03 01:09:26.180 ,0,1,0.,12.0,1.,12.0,0.,12.0,0.,12.0
1979-03-03 01:09:38.180 ,0,1,0.,12.0,0.,12.0,0.,12.0,0.,12.0
1979-03-03 01:09:50.180 ,1,1,0.,12.0,0.,12.0,0.,12.0,0.,12.0
1979-03-03 01:10:02.180 ,1,1,0.,12.0,0.,12.0,0.,12.0,0.,12.0
1979-03-03 01:10:14.180 ,2,1,0.,12.0,0.,12.0,0.,12.0,0.,12.0
1979-03-03 01:10:26.180 ,2,1,0.,12.0,0.,12.0,0.,12.0,0.,12.0
1979-03-03 01:10:38.180 ,3,1,0.,12.0,0.,12.0,0.,12.0,0.,12.0
1979-03-03 01:10:50.180 ,3,1,0.,12.0,0.,12.0,0.,12.0,0.,12.0
1979-03-03 01:11:02.180 ,4,1,0.,12.0,0.,12.0,0.,12.0,0.,12.0
1979-03-03 01:11:14.180 ,4,1,0.,12.0,0.,12.0,0.,12.0,0.,12.0
1979-03-03 01:11:26.180 ,5,1,0.,12.0,0.,12.0,0.,12.0,0.,12.0
1979-03-03 01:11:38.180 ,5,1,0.,12.0,0.,12.0,0.,12.0,0.,12.0
1979-03-03 01:11:50.180 ,6,1,0.,12.0,0.,12.0,0.,12.0,0.,12.0
1979-03-03 01:12:02.180 ,6,1,0.,12.0,0.,12.0,0.,12.0,0.,12.0
1979-03-03 01:12:14.180 ,7,1,0.,12.0,0.,12.0,0.,12.0,0.,12.0
1979-03-03 01:12:26.180 ,7,1,0.,12.0,9.,12.0,0.,12.0,0.,12.0
1979-03-03 01:12:38.180 ,7,1,0.,12.0,13.,12.0,0.,12.0,0.,12.0
1979-03-03 01:12:50.180 ,7,1,0.,12.0,16.,12.0,0.,12.0,0.,12.0
1979-03-03 01:13:02.180 ,6,1,0.,12.0,13.,12.0,0.,12.0,0.,12.0
1979-03-03 01:13:14.180 ,6,1,0.,12.0,6.,12.0,0.,12.0,0.,12.0
1979-03-03 01:13:26.180 ,5,1,0.,12.0,0.,12.0,0.,12.0,0.,12.0
1979-03-03 01:13:38.180 ,5,1,0.,12.0,1.,12.0,0.,12.0,0.,12.0
1979-03-03 01:13:50.180 ,4,1,0.,12.0,0.,12.0,0.,12.0,0.,12.0
1979-03-03 01:14:02.180 ,4,1,0.,12.0,2.,12.0,0.,12.0,0.,12.0
1979-03-03 01:14:14.180 ,3,1,0.,12.0,0.,12.0,0.,12.0,0.,12.0
1979-03-03 01:14:26.180 ,3,1,0.,12.0,0.,12.0,0.,12.0,0.,12.0
1979-03-03 01:14:38.180 ,0,0,0.,12.0,0.,12.0,0.,12.0,0.,12.0
1979-03-03 01:14:50.180 ,0,0,0.,12.0,1.,12.0,0.,12.0,0.,12.0
1979-03-03 01:15:02.180 ,1,1,,0,,0,,0,,0
1979-03-03 01:15:14.180 ,1,1,0.,12.0,0.,12.0,0.,12.0,0.,12.0
1979-03-03 01:15:26.180 ,0,0,0.,12.0,0.,12.0,0.,12.0,0.,12.0
1979-03-03 01:15:38.180 ,0,0,0.,12.0,0.,12.0,0.,12.0,0.,12.0
1979-03-03 01:15:50.780 ,0,1,0.,12.0,0.,12.0,0.,12.0,0.,12.0
1979-03-03 01:16:02.780 ,0,1,0.,12.0,0.,12.0,0.,12.0,0.,12.0
1979-03-03 01:16:14.180 ,1,1,0.,12.0,0.,12.0,0.,12.0,0.,12.0
1979-03-03 01:16:26.180 ,1,1,0.,12.0,0.,12.0,0.,12.0,0.,12.0
1979-03-03 01:16:38.180 ,2,1,0.,12.0,0.,12.0,0.,12.0,0.,12.0
1979-03-03 01:16:50.180 ,2,1,0.,12.0,0.,12.0,0.,12.0,0.,12.0
1979-03-03 01:17:02.180 ,3,1,0.,12.0,0.,12.0,0.,12.0,0.,12.0